Content
SEND FEEDBACK

Daily
Averages
Monthly
Summary
United States of America

MANGILAO, GUAM


Home > North America > United States > Guam
Elevation: 60 feet     Latitude: 13 27N     Longitude: 144 49E

WEATHER
 
SELECT A DAY
Number of Records: 342,764;   Date Range: 1/1/95 - 9/22/14
 
SHARE

PRINT THIS DATA

[ ← Previous Day ]
WEATHER ALMANAC - SEPTEMBER 26, 2013
[ Next Day → ]
[ °C ]   °F
Weather ElementAverageHighLow
Temperature80.1 °F86 °F (12:13 pm)71.6 °F (10:38 pm)
Dewpoint74.8 °F77.7 °F (2:58 pm)68 °F (10:38 pm)
Humidity84.3 %96 % (5:58 am)73 % (10:58 am)
Barometer29.76 in29.84 in (9:28 pm)29.65 in (2:58 pm)
Wind Speed5.2 mph8.1 mph (1:33 pm)
Weather ElementAverage
Visibility9.6 mi
Wind DirectionESE (124.6 °)

Weather ElementTotal
Precipitation0.03 in
Cooling Degree Days13.8 (Base 65)
Growing Degree Days28.8 (Base 50)
Averaged from 48 records on September 26, 2013
WEATHER CONDITIONS BREAKOUT
WIND DIRECTION BREAKOUT
WEATHER BY HOUR - SEPTEMBER 26, 2013
[ °C ]   °F
Local TimeTemperatureDewpointHumidityBarometerVisibilityWind DirectionWind SpeedGust SpeedPrecipitationEventsConditions
1:58 AM78.1 °F74.7 °F89 %29.72 in10.0 miNNE (30°)3.5 mphMostly Cloudy
2:58 AM77.7 °F74.7 °F90 %29.71 in10.0 miNNE (20°)3.5 mphScattered Clouds
3:38 AM75.2 °F73.4 °F94 %29.83 in10.0 miVariable4.6 mphRainLight Rain
3:48 AM75.2 °F73.4 °F94 %29.83 in1.8 miCalmRainRain
3:53 AM73.4 °F71.6 °F94 %29.83 in2.0 miWNW (290°)2.3 mphRainLight Rain
3:58 AM72.5 °F71.1 °F95 %29.71 in7.0 miWNW (300°)2.3 mph0.03 inRainLight Rain
3:59 AM73.4 °F71.6 °F94 %29.83 in10.0 miWNW (300°)2.3 mphMostly Cloudy
4:04 AM75.2 °F73.4 °F94 %29.82 in10.0 miWest (270°)3.5 mphMostly Cloudy
4:58 AM76.5 °F74.8 °F95 %29.70 in10.0 miWest (280°)3.5 mph0.00 inMostly Cloudy
5:58 AM72.9 °F71.8 °F96 %29.70 in10.0 miNNW (340°)4.6 mphClear
6:58 AM77.2 °F75.7 °F95 %29.71 in10.0 miNorth (360°)2.3 mphOvercast
7:58 AM81.9 °F77.4 °F86 %29.72 in10.0 miNorth (360°)4.6 mphPartly Cloudy
8:58 AM80.2 °F73.9 °F81 %29.73 in10.0 miVariable4.6 mphClear
9:58 AM84.2 °F76.5 °F77 %29.73 in10.0 miVariable2.3 mphClear
10:58 AM78.3 °F68.9 °F73 %29.72 in10.0 miENE (60°)4.6 mphPartly Cloudy
11:58 AM82.4 °F73.4 °F74 %29.70 in10.0 miNNE (30°)5.8 mphMostly Cloudy
12:08 PM84.2 °F75.2 °F74 %29.82 in10.0 miENE (60°)5.8 mphMostly Cloudy
12:13 PM86.0 °F77.0 °F74 %29.82 in10.0 miVariable6.9 mphMostly Cloudy
12:18 PM86.0 °F77.0 °F74 %29.82 in10.0 miENE (70°)5.8 mphMostly Cloudy
12:43 PM86.0 °F77.0 °F74 %29.81 in10.0 miEast (100°)6.9 mphMostly Cloudy
12:48 PM84.2 °F77.0 °F79 %29.81 in10.0 miEast (80°)5.8 mphMostly Cloudy
12:53 PM84.2 °F77.0 °F79 %29.81 in10.0 miENE (60°)5.8 mphMostly Cloudy
12:58 PM83.3 °F75.7 °F78 %29.69 in10.0 miVariable6.9 mphMostly Cloudy
1:08 PM82.4 °F73.4 °F74 %29.81 in10.0 miNE (50°)5.8 mphMostly Cloudy
1:23 PM84.2 °F75.2 °F74 %29.80 in10.0 miEast (100°)6.9 mphMostly Cloudy
1:33 PM86.0 °F77.0 °F74 %29.80 in10.0 miENE (70°)8.1 mphMostly Cloudy
1:48 PM86.0 °F77.0 °F74 %29.80 in10.0 miEast (90°)8.1 mphMostly Cloudy
1:58 PM84.6 °F76.1 °F76 %29.68 in10.0 miEast (90°)6.9 mphMostly Cloudy
2:08 PM84.2 °F77.0 °F79 %29.80 in10.0 miENE (70°)5.8 mphMostly Cloudy
2:43 PM86.0 °F77.0 °F74 %29.79 in10.0 miEast (90°)5.8 mphMostly Cloudy
2:58 PM85.5 °F77.7 °F78 %29.65 in10.0 miEast (90°)5.8 mphMostly Cloudy
3:13 PM84.2 °F77.0 °F79 %29.78 in10.0 miEast (90°)6.9 mphScattered Clouds
3:58 PM84.0 °F77.4 °F80 %29.66 in10.0 miEast (90°)5.8 mphPartly Cloudy
4:58 PM82.9 °F77.5 °F84 %29.66 in10.0 miESE (110°)4.6 mphScattered Clouds
5:58 PM80.8 °F76.5 °F87 %29.68 in10.0 miESE (120°)6.9 mphPartly Cloudy
6:58 PM80.2 °F76.5 °F88 %29.68 in10.0 miSE (130°)4.6 mphPartly Cloudy
7:58 PM79.9 °F76.5 °F89 %29.69 in10.0 miSE (130°)6.9 mphScattered Clouds
8:03 PM80.6 °F77.0 °F89 %29.81 in10.0 miSE (140°)4.6 mphMostly Cloudy
8:28 PM80.6 °F77.0 °F89 %29.82 in10.0 miSE (130°)5.8 mphScattered Clouds
8:58 PM79.7 °F75.9 °F88 %29.71 in10.0 miSE (130°)5.8 mphScattered Clouds
9:28 PM80.6 °F77.0 °F89 %29.84 in10.0 miSE (140°)5.8 mphMostly Cloudy
9:58 PM79.2 °F75.6 °F89 %29.70 in10.0 miSSE (150°)4.6 mphMostly Cloudy
10:08 PM75.2 °F73.4 °F94 %29.83 in10.0 miSSE (150°)4.6 mphScattered Clouds
10:23 PM73.4 °F69.8 °F88 %29.83 in10.0 miSSE (160°)5.8 mphMostly Cloudy
10:38 PM71.6 °F68.0 °F88 %29.83 in10.0 miSSE (150°)6.9 mphMostly Cloudy
10:58 PM72.0 °F68.9 °F90 %29.70 in10.0 miSSE (160°)5.8 mphMostly Cloudy
11:48 PM73.4 °F69.8 °F88 %29.81 in10.0 miSouth (170°)5.8 mphMostly Cloudy
11:58 PM79.5 °F76.3 °F90 %29.69 in10.0 miSouth (170°)5.8 mphOvercast
Hourly data recorded from PGUA, located miles away from Mangilao, Guam







STORIES FROM OUR PARTNERS